sat.trackr.live / text

‹ back to catalog

STARLINK-32340

NORAD 61008 · 2024-158U

PAYLOAD ACTIVE UNKNOWN

§ Identity

Operator
Country
US
Launch date
2024-09-05
Launch site
AFETR
Launch vehicle
Mass (kg)
RCS (m²)

Purposes: comms

External: N2YO · Heavens-Above · Gunter

§ Orbital elements

Epoch: 2026-09-21T22:29:31.676352Z

Period
93.85 min
Inclination
53.1598°
Eccentricity
0.0001368
Mean motion
15.34386626 rev/d
Perigee alt
461.8 km
Apogee alt
463.7 km
Semi-major
6,840.9 km
B*
1.8718e-5
RAAN
230.6483°
Arg perigee
92.4332°
Mean anomaly
267.6827°
Rev number
11,567

§ Raw data

STARLINK-323401 61008U 24158U   26264.93717218  .00000256  00000+0  18718-4 0  99942 61008  53.1598 230.6483 0001368  92.4332 267.6827 15.34386626115677

JSON: /api/v1/satellites/61008 · /tle

For live sub-satellite position, see the globe view (requires WebGL).

§ Visibility from observer

Set your observer location to see the next 7 days of passes ≥ 10°. The values pass through the URL so the page stays shareable.

No JS? Fill the form by hand. The geolocation button needs JavaScript.